Temp
21 21 19 22 26 29 30 31 33 31 31 30 30 30 30 27 28 24 23 22 20 17 17 17 17 16 15 15 14 14 14 14 14 14 14 14 14 14 14 14 15 15 15 15 16 17 17 17 17
20 20 21 24 27 29 30 33 31 32 30 28 28 28 29 26 23 22 22 21 19 17 16 17 17 16 15 15 15 15 15 15 15 14 14 15 15 14 14 14 14 15 15 16 16 16 16 16 17
20 21 24 28 28 29 29 29 32 31 28 28 28 28 27 24 23 22 21 20 19 17 16 16 17 16 15 15 15 15 15 15 15 15 15 15 15 15 15 15 15 16 16 15 16 16 16 16 16
21 22 24 27 28 31 32 31 31 30 29 28 28 27 22 22 23 21 20 20 19 18 17 16 16 16 16 15 15 15 15 15 15 15 15 15 15 15 15 15 15 15 16 16 16 16 16 16 16
22 24 27 28 29 31 31 31 30 30 29 29 28 26 23 21 21 20 20 20 19 18 16 16 16 16 15 15 15 15 15 15 15 15 15 15 15 15 15 15 15 15 15 15 16 16 16 16 16
24 25 26 27 29 31 31 30 29 30 29 28 28 26 22 20 20 20 20 19 19 18 15 16 16 15 15 15 15 15 15 15 15 15 16 15 15 15 15 15 15 15 15 16 16 16 16 16 16
25 27 26 28 30 31 30 30 30 30 29 29 27 27 20 20 20 20 19 18 18 17 15 14 15 15 15 15 15 15 15 15 15 15 16 15 15 15 15 15 15 15 15 15 16 16 16 16 16
24 27 27 28 29 29 30 28 28 29 29 26 26 26 21 21 20 20 18 17 17 17 15 14 13 14 15 16 15 15 15 15 15 16 16 16 16 16 15 15 15 15 16 16 16 16 16 16 16
24 26 26 28 29 29 30 29 27 28 27 25 25 25 22 20 20 20 19 18 16 16 15 15 14 14 13 15 16 16 15 15 16 16 16 15 15 15 15 14 15 15 16 16 16 16 16 16 16
25 25 27 29 30 29 30 29 27 26 27 25 24 22 20 20 19 20 19 18 16 15 16 15 15 14 14 14 15 15 16 16 15 15 15 15 14 14 14 15 15 16 16 16 16 16 17 16 17
25 25 28 29 29 28 29 28 26 26 27 26 24 22 19 19 19 20 20 19 18 16 15 16 15 14 15 15 15 14 14 15 14 14 15 15 15 14 15 15 16 16 16 15 16 16 16 17 17
25 26 26 28 28 27 28 28 28 26 27 26 24 22 19 19 20 21 21 20 19 16 15 15 15 15 16 15 16 16 16 15 15 15 15 14 15 15 16 16 16 16 16 17 17 16 15 14 15
25 26 26 26 27 27 27 28 28 26 25 25 25 22 20 20 21 21 21 21 20 18 16 16 16 15 16 16 17 16 16 16 16 15 15 15 16 16 17 17 17 17 17 17 16 15 14 13 14
25 26 26 26 26 27 26 27 27 27 25 25 24 21 20 20 21 20 21 21 20 19 17 16 16 15 15 16 16 16 16 16 16 16 15 16 17 16 17 16 17 17 16 15 15 15 14 13 13
24 25 25 26 26 27 26 26 27 27 26 25 24 21 20 20 21 20 21 21 20 19 17 16 16 15 15 16 15 15 16 16 16 16 15 15 16 16 17 17 16 16 15 15 15 14 13 12 12
24 24 24 26 26 26 26 25 27 27 27 25 25 22 21 19 20 20 21 21 20 19 18 16 16 15 14 15 15 16 16 16 16 16 15 15 16 15 15 16 15 14 14 14 14 14 13 12 12
23 23 23 25 27 26 26 25 28 27 27 26 25 24 22 20 20 20 20 20 20 19 18 16 16 15 14 14 15 16 15 16 16 16 15 14 15 14 15 15 14 14 14 14 14 13 13 12 11
23 23 25 25 27 26 26 25 27 28 29 27 26 24 23 21 20 20 19 20 20 19 18 16 15 15 14 14 15 16 15 16 16 16 16 14 14 14 14 14 14 14 14 13 13 13 12 12 11
25 25 25 26 27 25 25 26 27 28 28 28 27 25 23 23 21 20 19 19 19 19 17 16 15 15 14 15 15 16 16 16 15 15 15 13 14 15 15 13 15 14 14 13 12 12 11 11 10
24 24 25 26 26 24 25 25 27 28 28 27 27 26 23 23 22 21 19 19 19 19 17 16 16 15 14 15 16 16 16 16 15 15 13 14 15 15 15 13 14 14 13 13 13 12 11 11 10
23 23 24 24 25 24 24 25 26 27 27 28 27 26 24 22 21 21 20 19 18 18 17 17 16 15 15 16 16 16 15 15 14 14 13 13 15 15 14 14 13 14 12 13 13 12 11 10 10
21 24 24 24 23 22 24 22 25 26 27 28 27 26 26 23 21 20 20 19 18 18 17 16 16 15 15 15 15 15 15 14 15 14 13 14 15 14 14 14 14 14 13 11 12 11 10 10 10
22 24 23 23 23 23 24 23 25 26 26 27 27 25 25 24 22 21 19 18 17 17 16 16 16 16 15 14 15 15 15 15 15 14 13 13 14 14 14 14 14 13 13 12 11 10 10 10 10
22 23 22 22 22 20 23 23 24 27 26 27 27 26 24 24 23 22 20 19 18 17 15 15 15 15 14 14 14 14 14 16 16 14 13 12 13 14 14 14 13 13 13 12 12 11 11 10 10
22 21 19 19 20 20 24 23 24 23 24 25 26 27 25 23 23 22 21 19 18 17 16 15 15 14 14 14 14 14 14 15 15 14 12 12 12 13 14 14 13 13 13 12 12 11 10 10 9
20 20 20 18 19 21 24 22 24 22 21 21 20 20 21 23 23 21 20 19 18 16 15 14 15 14 13 14 15 15 14 14 14 13 12 11 12 14 14 13 13 12 13 12 12 11 9 8 8
20 20 22 22 22 22 23 21 20 20 20 20 19 18 17 17 17 19 19 18 18 16 15 14 16 15 14 14 13 14 13 13 13 13 12 12 13 13 13 13 12 11 12 12 12 11 10 9 9
21 21 20 22 19 19 23 22 22 19 19 18 18 16 16 15 16 16 16 16 16 16 15 15 15 14 14 14 13 14 15 15 14 13 12 13 12 13 12 13 11 11 11 11 11 10 10 10 9
20 19 20 21 21 20 21 22 24 20 19 17 16 15 14 14 14 14 12 15 16 15 15 14 14 13 13 13 13 13 13 14 15 14 12 12 12 12 12 11 12 11 10 11 8 10 10 9 9
18 19 20 20 19 21 22 17 21 18 17 16 14 13 13 13 12 12 11 9 11 12 12 12 13 12 12 12 13 12 13 13 12 12 12 12 12 12 11 11 10 9 10 11 9 9 9 8 8
Height
1491 1491 1493 1496 1490 1465 1451 1434 1426 1434 1439 1447 1446 1450 1451 1460 1459 1479 1482 1485 1491 1493 1495 1498 1502 1505 1508 1510 1512 1513 1515 1515 1516 1517 1518 1520 1521 1522 1525 1527 1528 1530 1532 1536 1537 1539 1540 1542 1542
1493 1495 1495 1487 1478 1463 1446 1422 1432 1430 1443 1451 1455 1458 1458 1470 1473 1478 1483 1487 1492 1495 1497 1499 1502 1506 1509 1512 1514 1515 1517 1517 1519 1519 1520 1523 1525 1526 1527 1530 1533 1535 1536 1538 1540 1542 1543 1544 1545
1490 1494 1491 1474 1465 1458 1448 1446 1428 1438 1450 1453 1457 1459 1464 1475 1479 1481 1486 1488 1493 1497 1500 1500 1504 1507 1510 1513 1516 1518 1519 1521 1521 1522 1524 1526 1527 1529 1532 1534 1536 1538 1539 1541 1542 1544 1545 1547 1548
1491 1492 1487 1472 1458 1442 1434 1440 1440 1444 1451 1454 1455 1462 1475 1479 1481 1483 1488 1491 1495 1499 1502 1502 1505 1508 1512 1515 1517 1520 1521 1523 1524 1525 1527 1528 1529 1531 1533 1536 1538 1540 1541 1543 1545 1547 1549 1550 1550
1488 1482 1471 1460 1452 1440 1437 1441 1445 1444 1449 1453 1456 1464 1474 1481 1483 1485 1489 1493 1497 1501 1500 1503 1506 1510 1513 1515 1518 1521 1523 1524 1526 1528 1529 1531 1532 1534 1536 1539 1541 1543 1545 1547 1549 1550 1552 1553 1554
1482 1476 1468 1458 1444 1435 1438 1443 1446 1444 1450 1454 1458 1465 1477 1482 1484 1487 1491 1494 1499 1502 1503 1504 1508 1511 1514 1517 1519 1522 1524 1526 1528 1529 1531 1533 1535 1537 1539 1542 1544 1546 1548 1550 1552 1553 1554 1555 1556
1475 1465 1461 1450 1438 1431 1438 1444 1445 1445 1449 1453 1458 1461 1479 1482 1484 1488 1492 1495 1500 1503 1505 1506 1509 1512 1514 1518 1520 1523 1525 1527 1530 1532 1533 1535 1537 1540 1542 1545 1547 1549 1551 1552 1554 1555 1556 1557 1559
1472 1465 1454 1445 1440 1439 1436 1447 1448 1446 1447 1456 1460 1461 1476 1479 1484 1488 1492 1496 1501 1504 1506 1508 1511 1513 1515 1518 1521 1523 1526 1529 1531 1534 1536 1538 1541 1543 1545 1547 1549 1551 1553 1555 1556 1557 1559 1560 1561
1469 1462 1453 1444 1438 1438 1436 1446 1449 1449 1449 1457 1462 1462 1466 1475 1483 1487 1492 1496 1500 1503 1506 1509 1512 1515 1517 1518 1521 1524 1527 1530 1533 1535 1538 1541 1544 1546 1548 1550 1551 1553 1555 1556 1558 1560 1561 1562 1563
1462 1457 1446 1437 1431 1434 1434 1442 1446 1453 1450 1458 1462 1467 1470 1475 1480 1484 1490 1494 1498 1500 1506 1509 1513 1515 1519 1522 1522 1525 1528 1531 1535 1537 1540 1545 1548 1550 1552 1552 1553 1555 1556 1558 1559 1561 1561 1562 1563
1455 1450 1441 1437 1432 1438 1436 1442 1446 1450 1447 1453 1461 1466 1470 1474 1479 1483 1488 1493 1497 1501 1502 1509 1512 1515 1519 1522 1525 1529 1532 1534 1537 1539 1542 1546 1549 1550 1553 1553 1555 1556 1558 1558 1560 1561 1561 1564 1565
1448 1445 1444 1435 1434 1440 1441 1437 1442 1448 1446 1450 1458 1463 1470 1473 1476 1480 1486 1491 1496 1500 1502 1507 1512 1515 1519 1522 1526 1530 1533 1536 1537 1540 1543 1545 1548 1550 1554 1555 1557 1559 1559 1562 1563 1563 1563 1564 1564
1442 1441 1440 1438 1434 1437 1442 1437 1439 1444 1449 1451 1454 1459 1467 1472 1476 1480 1485 1490 1495 1500 1502 1505 1512 1515 1519 1522 1526 1529 1533 1536 1539 1540 1543 1545 1549 1551 1553 1555 1557 1558 1560 1561 1562 1564 1563 1564 1563
1437 1437 1437 1434 1434 1433 1439 1437 1438 1440 1447 1450 1453 1458 1464 1469 1473 1479 1483 1488 1493 1498 1501 1504 1510 1514 1518 1522 1525 1529 1532 1535 1538 1541 1543 1546 1548 1550 1553 1555 1556 1558 1559 1560 1563 1563 1564 1565 1563
1436 1434 1433 1430 1429 1430 1437 1435 1431 1435 1440 1446 1450 1457 1462 1466 1472 1476 1481 1485 1491 1496 1500 1503 1508 1512 1516 1521 1524 1528 1532 1534 1538 1540 1541 1545 1548 1549 1551 1554 1556 1557 1557 1558 1560 1562 1562 1563 1563
1434 1434 1432 1421 1425 1428 1431 1431 1426 1429 1434 1441 1445 1453 1459 1463 1468 1474 1479 1483 1489 1493 1498 1503 1507 1510 1514 1519 1523 1527 1530 1534 1537 1539 1541 1543 1546 1548 1550 1552 1554 1555 1556 1559 1559 1561 1562 1562 1563
1427 1424 1424 1418 1414 1422 1424 1425 1416 1421 1425 1431 1439 1446 1454 1460 1466 1470 1475 1481 1486 1491 1496 1501 1506 1509 1512 1517 1521 1526 1529 1533 1536 1538 1540 1542 1544 1546 1549 1552 1553 1553 1556 1557 1557 1558 1560 1560 1562
1415 1420 1408 1410 1404 1413 1417 1419 1416 1412 1412 1424 1431 1440 1445 1453 1459 1466 1472 1478 1483 1489 1494 1499 1504 1507 1511 1514 1519 1524 1527 1531 1534 1537 1539 1539 1542 1543 1547 1549 1549 1552 1555 1556 1557 1558 1559 1560 1561
1397 1400 1405 1395 1396 1407 1414 1412 1411 1410 1408 1415 1423 1432 1440 1446 1454 1461 1468 1475 1480 1485 1490 1495 1500 1504 1508 1512 1515 1521 1524 1528 1531 1535 1536 1537 1540 1541 1544 1546 1547 1550 1553 1554 1554 1556 1557 1559 1560
1401 1399 1396 1393 1394 1409 1408 1409 1404 1404 1403 1409 1415 1422 1436 1443 1447 1455 1463 1469 1475 1481 1486 1491 1497 1501 1505 1509 1513 1518 1522 1526 1530 1533 1532 1534 1536 1539 1542 1544 1545 1547 1549 1550 1551 1552 1555 1557 1557
1400 1402 1399 1398 1398 1409 1411 1406 1400 1398 1401 1403 1410 1414 1425 1437 1444 1450 1457 1464 1469 1475 1481 1487 1491 1497 1501 1506 1510 1515 1520 1523 1526 1529 1530 1532 1534 1537 1539 1540 1542 1544 1546 1546 1548 1549 1552 1554 1555
1402 1396 1396 1396 1403 1412 1407 1414 1395 1393 1394 1394 1404 1409 1414 1427 1440 1446 1451 1457 1462 1469 1475 1482 1486 1491 1498 1502 1507 1510 1513 1517 1521 1525 1527 1528 1531 1534 1536 1538 1539 1541 1543 1543 1545 1545 1548 1551 1553
1395 1392 1400 1402 1402 1406 1394 1407 1386 1383 1390 1388 1400 1410 1413 1419 1430 1440 1446 1451 1456 1464 1466 1474 1478 1485 1493 1496 1502 1505 1511 1514 1519 1522 1524 1525 1527 1530 1532 1534 1536 1537 1539 1540 1542 1543 1544 1547 1550
1395 1393 1400 1403 1403 1414 1395 1398 1388 1372 1378 1386 1391 1400 1411 1416 1423 1433 1441 1448 1453 1459 1463 1471 1473 1477 1486 1492 1495 1499 1504 1512 1516 1519 1521 1522 1523 1526 1529 1530 1532 1534 1536 1536 1538 1539 1541 1544 1546
1389 1396 1411 1413 1408 1399 1383 1392 1384 1384 1384 1388 1391 1392 1403 1413 1419 1426 1433 1441 1448 1453 1459 1465 1469 1475 1480 1484 1487 1494 1500 1506 1511 1512 1516 1520 1520 1522 1524 1527 1528 1530 1532 1533 1535 1536 1538 1539 1542
1384 1388 1389 1405 1399 1387 1376 1388 1378 1391 1397 1399 1405 1408 1409 1412 1417 1423 1431 1435 1443 1449 1453 1458 1463 1472 1480 1480 1481 1484 1497 1501 1508 1508 1512 1514 1515 1518 1521 1524 1525 1526 1528 1530 1532 1533 1535 1536 1537
1380 1382 1370 1376 1371 1379 1369 1384 1394 1398 1402 1404 1412 1419 1422 1422 1420 1421 1430 1432 1438 1443 1448 1452 1456 1461 1470 1477 1478 1480 1490 1494 1497 1502 1507 1507 1511 1515 1517 1520 1522 1524 1524 1526 1529 1530 1531 1532 1533
1370 1375 1386 1372 1391 1389 1363 1372 1379 1400 1404 1409 1417 1423 1426 1427 1427 1429 1432 1434 1438 1440 1444 1447 1452 1458 1466 1469 1471 1474 1480 1486 1488 1495 1500 1502 1507 1508 1510 1512 1517 1521 1522 1525 1527 1526 1528 1529 1530
1374 1380 1375 1370 1373 1378 1375 1362 1355 1388 1402 1412 1421 1426 1428 1429 1430 1431 1431 1433 1437 1437 1441 1445 1447 1452 1458 1462 1465 1470 1474 1477 1480 1485 1493 1500 1502 1505 1507 1510 1510 1516 1519 1522 1528 1525 1525 1528 1529
1379 1374 1372 1374 1374 1369 1363 1395 1376 1391 1407 1419 1427 1430 1432 1433 1435 1435 1434 1434 1433 1436 1439 1443 1445 1450 1454 1457 1457 1467 1470 1473 1478 1484 1489 1494 1497 1500 1504 1506 1509 1512 1512 1518 1524 1525 1523 1526 1527
Wind_Speed
6 4 2 9 8 9 19 11 7 4 5 5 4 4 16 21 13 7 20 19 20 19 20 18 15 14 12 12 12 15 17 18 18 18 19 19 18 18 17 17 17 17 15 20 22 21 21 21 21
5 6 8 13 9 15 15 8 5 4 12 6 9 3 3 13 11 18 20 22 22 20 21 19 16 14 13 12 12 15 16 17 17 18 18 16 17 18 18 18 16 17 21 23 23 23 21 20 20
10 9 14 10 15 17 8 19 3 15 7 10 6 0 6 6 11 15 20 24 22 19 19 19 17 16 14 13 12 13 13 14 14 16 14 14 16 17 18 19 20 21 24 24 22 21 20 19 20
9 9 13 12 20 20 20 10 8 7 7 10 8 10 9 8 13 13 23 23 22 19 19 20 17 17 15 13 12 12 13 12 12 13 13 16 19 18 20 22 22 24 24 22 21 20 19 19 20
13 14 13 18 21 22 2 4 7 8 9 12 7 10 9 10 11 22 24 23 22 20 18 21 18 17 16 13 12 13 14 13 12 12 13 15 18 20 21 21 23 23 23 21 20 19 18 18 18
15 19 15 17 22 19 7 5 8 10 10 10 7 13 8 11 19 23 22 22 21 19 19 21 19 18 16 14 14 13 14 14 14 13 15 17 20 20 21 22 23 22 21 19 18 17 17 17 17
19 14 18 22 21 14 12 9 9 11 9 11 3 8 8 16 22 23 22 22 21 19 20 20 20 19 17 15 14 14 15 15 16 16 18 19 20 22 23 23 22 20 18 17 15 14 14 14 14
25 16 25 20 19 15 12 5 11 13 12 6 7 7 10 23 26 24 22 22 21 21 20 20 18 18 18 18 16 15 16 17 17 18 20 21 21 21 21 20 19 17 15 14 13 12 11 11 11
24 16 19 23 19 16 11 10 10 10 10 11 8 4 20 29 27 26 24 24 23 23 21 20 19 17 17 18 18 17 17 16 17 19 19 19 18 17 17 15 16 14 12 11 10 9 8 7 8
19 17 25 22 17 8 8 15 14 7 11 11 10 8 25 30 30 29 28 27 24 26 24 21 20 20 18 16 19 18 17 18 16 19 21 14 13 11 10 15 13 11 10 9 9 8 10 9 7
26 23 22 26 23 9 14 12 7 12 14 16 16 17 26 31 30 29 27 27 26 25 25 22 21 21 20 18 17 15 15 15 15 17 14 16 14 13 10 12 11 9 9 8 7 8 5 4 5
26 26 30 28 22 14 18 13 16 11 7 10 15 20 25 30 31 30 28 28 27 27 25 24 21 21 20 19 18 16 15 15 15 16 16 15 12 12 10 8 8 7 4 7 6 5 6 5 6
23 25 29 28 29 21 22 19 13 16 14 7 11 23 26 28 28 28 28 26 27 27 27 26 23 22 20 20 18 18 16 15 14 15 15 14 11 11 11 10 8 7 6 6 6 6 7 8 6
25 24 24 28 29 21 18 22 18 18 14 13 14 22 26 28 30 29 28 28 28 27 27 27 25 22 20 19 19 18 18 17 15 13 14 14 12 12 10 9 9 8 7 8 7 7 9 7 4
21 18 17 26 22 25 22 22 24 20 19 19 17 21 25 27 29 30 30 29 28 28 27 27 26 24 21 18 19 17 16 15 15 14 15 14 12 13 11 10 9 8 11 12 10 8 6 5 4
21 20 21 22 24 20 24 25 24 24 23 20 20 21 24 27 30 29 29 28 29 28 28 27 26 25 23 19 19 16 16 15 14 13 13 14 12 12 12 11 11 11 9 8 7 8 7 6 6
16 18 25 23 26 22 25 22 22 31 29 22 23 24 26 27 30 30 30 29 30 28 28 27 26 25 25 21 19 17 17 16 15 13 13 14 13 12 11 10 11 11 8 11 7 7 6 8 8
23 23 20 23 21 23 25 25 22 28 32 22 24 22 27 30 33 31 30 29 30 29 28 26 27 26 25 22 20 18 17 16 15 15 14 16 13 13 13 12 12 10 8 7 8 8 8 8 10
21 21 23 18 14 23 22 24 23 25 26 24 24 24 24 30 31 31 30 30 31 30 29 29 29 28 26 23 22 21 20 18 17 16 15 16 13 15 15 10 13 12 9 9 11 10 11 10 12
27 18 18 17 13 11 16 22 25 24 25 25 27 27 26 26 30 33 32 32 32 32 31 31 29 28 28 24 22 21 20 18 17 16 17 16 18 16 15 12 12 13 11 13 11 12 12 11 13
26 21 20 19 13 13 15 20 23 26 28 30 30 28 30 30 30 32 34 34 34 34 35 33 34 31 30 25 24 21 20 19 18 18 16 18 19 17 15 14 11 12 12 12 12 13 13 13 14
25 22 19 16 12 15 20 14 19 21 23 25 25 22 27 31 30 33 35 36 39 38 37 36 34 32 30 28 25 25 25 22 20 18 15 19 21 19 17 15 15 13 11 10 11 13 14 14 13
22 20 19 19 16 16 18 14 16 25 25 21 23 24 24 29 32 33 35 36 38 38 41 43 38 32 33 32 28 28 23 19 15 16 16 19 22 21 18 16 16 14 13 13 13 15 16 14 12
20 18 15 18 14 15 24 16 14 18 24 23 23 30 22 23 30 31 31 31 34 35 36 35 36 36 34 33 32 34 26 19 18 18 18 17 19 20 19 18 16 15 14 14 15 16 15 15 13
23 17 11 13 13 15 22 19 11 9 6 2 3 23 27 24 25 29 32 32 34 36 34 34 33 32 41 38 39 33 25 22 23 21 19 18 18 19 21 19 17 15 15 15 15 15 14 15 14
26 23 16 21 18 18 17 20 11 12 8 12 10 10 8 13 22 23 19 30 32 32 34 36 31 30 32 38 41 34 27 25 22 20 19 21 22 23 20 18 17 16 15 15 15 14 14 14 15
21 23 28 19 19 17 18 7 8 11 12 13 14 11 7 5 3 8 22 24 22 25 29 31 34 36 36 34 34 32 33 31 31 29 29 31 25 20 17 18 17 17 15 15 15 15 15 15 17
22 23 21 19 18 20 20 22 10 16 15 14 13 13 11 9 6 3 5 7 19 20 21 26 29 33 39 37 39 37 34 33 32 36 34 26 21 19 19 18 18 18 15 14 15 15 15 15 16
17 13 21 22 15 15 16 18 18 20 17 15 12 13 12 12 10 7 8 5 6 10 18 21 20 19 24 30 36 36 36 37 37 39 34 24 23 22 20 20 20 19 14 14 15 15 14 15 14
14 19 22 15 21 18 14 6 17 20 16 16 15 15 14 14 12 11 10 12 13 16 13 16 16 21 24 23 22 31 32 34 35 33 29 24 25 24 22 20 21 17 16 16 17 16 14 16 16
Wind_Direction
219 217 140 240 244 232 266 243 38 119 151 67 94 8 46 27 13 74 136 143 146 146 153 150 150 143 137 125 117 113 107 104 103 109 113 114 119 128 133 130 131 129 124 118 123 122 115 110 106
192 207 231 262 247 253 244 236 129 79 75 121 104 107 105 77 62 123 131 144 144 148 146 154 151 146 140 134 129 119 115 107 103 106 103 108 114 114 117 119 124 129 125 123 119 115 110 107 105
182 220 260 227 237 252 283 336 333 82 124 148 136 221 77 78 114 128 145 140 143 146 145 156 151 147 141 142 136 135 123 115 110 110 112 118 127 129 131 131 126 124 125 122 118 113 108 107 106
194 218 248 254 250 250 261 155 310 122 158 167 147 105 96 98 130 142 142 142 143 144 155 155 152 148 143 146 142 140 134 131 124 120 122 131 135 138 137 137 134 131 126 122 117 113 108 107 105
219 253 246 244 244 254 320 328 268 172 157 177 188 131 90 132 136 142 145 144 146 145 170 157 154 150 145 149 148 149 141 138 136 129 126 132 131 134 137 137 133 129 125 121 115 111 108 106 106
222 234 244 245 243 239 217 210 249 217 158 175 189 122 106 150 148 149 148 147 148 152 146 156 156 151 149 151 150 149 146 145 144 132 130 131 128 131 133 135 134 133 129 125 120 114 111 110 109
236 231 243 256 262 238 200 230 224 215 169 167 174 158 132 156 155 153 153 149 148 151 152 151 158 154 151 150 151 149 147 146 146 138 138 136 131 131 136 137 138 137 133 127 120 114 110 110 109
232 250 258 248 259 253 207 189 253 232 196 122 176 167 168 163 158 157 158 151 153 152 155 152 155 150 153 151 151 149 147 146 145 143 144 141 138 136 138 141 143 142 140 133 122 116 112 110 110
227 248 243 244 243 242 150 224 183 250 126 168 189 355 147 161 161 159 160 159 164 155 157 156 155 155 155 156 150 150 147 146 145 144 141 135 137 133 133 148 147 144 140 133 127 119 108 106 101
231 233 241 246 247 236 224 218 145 210 189 183 161 127 151 160 166 165 169 169 169 161 160 161 160 158 154 152 149 149 147 140 146 148 138 133 145 142 162 153 148 144 139 134 129 116 89 106 68
218 240 239 246 257 249 256 218 169 211 207 188 185 157 163 167 172 172 176 176 174 173 162 164 164 162 155 163 150 152 143 150 149 148 142 166 157 164 156 154 149 140 126 120 117 97 77 101 94
227 234 247 260 239 224 257 213 203 220 224 210 192 176 173 175 178 178 179 178 176 177 170 163 169 166 160 160 157 159 163 158 159 158 162 159 150 149 165 157 156 156 150 155 146 153 139 121 161
229 238 244 245 257 201 239 242 225 205 232 188 203 168 181 184 184 183 180 181 179 178 174 169 172 169 168 164 164 162 165 160 165 167 160 157 167 161 159 169 160 161 161 155 151 145 129 120 122
230 236 248 246 240 239 232 241 231 226 195 210 180 177 186 188 186 183 184 183 182 182 180 172 173 173 174 167 171 167 166 167 166 168 175 169 169 166 167 165 165 167 166 153 147 147 129 131 140
245 233 243 244 232 237 222 240 233 218 209 205 194 190 190 191 187 188 185 185 185 185 183 179 175 177 177 176 171 169 170 172 171 171 179 171 174 173 174 172 174 171 183 179 172 151 170 143 151
225 240 241 228 229 223 226 232 224 209 212 199 199 195 194 192 190 189 188 188 187 186 186 183 179 180 178 181 175 174 181 170 176 182 175 175 176 180 173 182 179 176 160 160 163 161 160 148 133
209 227 225 242 206 217 221 232 234 217 215 203 201 196 195 191 191 191 190 189 189 188 186 187 183 184 180 182 178 178 191 177 183 180 182 178 178 178 171 180 183 169 173 190 211 194 182 165 149
213 219 236 217 218 205 224 229 238 236 220 198 202 203 192 192 192 190 190 190 190 189 188 189 187 187 183 183 179 183 189 183 189 188 186 182 184 184 172 190 196 180 187 189 182 180 175 167 154
233 219 225 235 210 197 224 235 219 234 228 201 211 190 204 193 191 190 191 191 190 190 190 189 189 189 184 186 181 186 190 187 187 184 188 190 194 197 190 193 203 192 191 193 195 185 174 165 159
240 247 226 234 188 216 225 230 236 220 236 211 207 187 195 196 189 190 191 191 192 191 191 189 192 191 188 190 188 190 189 193 191 191 201 193 206 205 202 196 203 202 198 212 211 199 175 180 175
228 223 233 230 192 212 244 242 222 229 221 217 222 202 190 196 196 193 190 192 190 193 192 191 192 195 194 193 188 188 190 192 193 199 202 200 211 213 211 211 203 216 211 227 226 204 190 192 195
224 216 236 225 215 219 206 237 211 225 222 216 206 222 195 188 195 194 191 192 192 193 196 192 192 195 200 194 194 193 192 194 198 201 199 210 215 217 219 222 223 231 225 220 220 206 198 190 203
229 210 220 233 233 241 221 225 249 199 219 204 200 205 222 193 190 195 195 196 194 192 196 197 195 192 204 196 198 198 197 195 203 202 199 207 214 217 221 223 228 233 224 227 218 212 201 205 203
220 236 201 231 230 230 234 211 237 228 200 214 213 196 200 205 195 196 199 199 199 198 199 200 191 194 202 200 198 207 198 200 205 202 200 203 212 216 224 228 230 233 229 231 221 219 214 199 200
214 214 198 205 212 224 215 229 228 55 75 65 300 211 183 199 201 195 190 194 198 196 197 198 199 202 203 201 202 212 210 204 212 203 201 200 204 214 225 230 230 230 231 236 225 225 218 207 200
204 204 208 203 212 213 237 208 195 119 111 104 74 54 72 189 197 183 186 189 195 199 202 202 203 207 223 219 219 213 214 206 210 207 203 210 212 226 237 236 231 230 234 237 232 226 214 207 199
197 215 222 233 233 217 193 140 97 140 129 116 110 108 103 84 83 120 187 201 197 200 201 205 202 209 222 213 220 212 209 208 211 214 206 217 225 231 235 234 238 231 237 237 231 222 212 212 206
227 211 220 235 235 219 208 188 178 169 147 131 127 118 112 104 102 142 172 181 203 209 204 215 221 217 207 205 212 218 220 225 230 236 235 233 227 230 231 231 231 234 235 233 227 225 221 212 210
216 229 231 240 225 229 231 201 151 154 145 133 120 115 109 99 99 99 66 134 168 188 211 219 227 232 215 222 224 230 224 225 230 234 237 232 226 226 228 229 229 232 234 238 222 220 217 209 202
295 225 235 229 215 242 247 83 105 120 126 125 120 114 107 103 99 92 90 78 117 154 169 206 207 214 225 219 226 232 233 233 236 238 224 228 222 226 225 235 229 217 223 234 226 222 209 203 197